KD7MPG-3 Weather Reports


time (UTC)temp
C
wind
direction
speed
KPH
gust
KPH
rain 1hr
cm
rain 24hr
cm
rain mn
cm
humidity
%
barometer
mb
20260507085234 12 299 1.6 3.2 0.00 0.00 0.00 86 1030.1
20260507084734 12 318 1.6 4.8 0.00 0.00 0.00 86 1030.0
20260507084232 12 251 1.6 4.8 0.00 0.00 0.00 86 1030.1
20260507083732 12 271 1.6 6.4 0.00 0.00 0.00 86 1030.2
20260507083233 12 300 1.6 6.4 0.00 0.00 0.00 86 1030.1
20260507082729 12 10 0.0 4.8 0.00 0.00 0.00 86 1030.1
20260507082228 12 194 0.0 1.6 0.00 0.00 0.00 86 1030.0
20260507081728 12 194 0.0 1.6 0.00 0.00 0.00 86 1030.1
20260507081224 12 193 0.0 1.6 0.00 0.00 0.00 86 1030.1
20260507080724 12 194 0.0 1.6 0.00 0.00 0.00 86 1030.1
20260507080225 12 194 0.0 0.0 0.00 0.00 0.00 86 1030.2
20260507075724 12 194 0.0 3.2 0.00 0.00 0.00 86 1030.2
20260507075222 12 193 0.0 3.2 0.00 0.00 0.00 86 1030.2
20260507074722 12 191 0.0 3.2 0.00 0.00 0.00 86 1030.2
20260507074216 12 300 0.0 1.6 0.00 0.00 0.00 86 1030.2
20260507073716 12 300 0.0 3.2 0.00 0.00 0.00 86 1030.3
20260507073213 12 301 0.0 3.2 0.00 0.00 0.00 86 1030.2
20260507072710 12 300 0.0 3.2 0.00 0.00 0.00 85 1030.2
20260507072210 12 300 1.6 4.8 0.00 0.00 0.00 85 1030.1
20260507071709 12 303 1.6 4.8 0.00 0.00 0.00 85 1030.1
20260507071206 12 281 1.6 4.8 0.00 0.00 0.00 85 1030.1
20260507070703 12 318 0.0 3.2 0.00 0.00 0.00 85 1030.1
20260507070205 12 336 0.0 3.2 0.00 0.00 0.00 85 1030.1
20260507065704 12 327 0.0 3.2 0.00 0.00 0.00 85 1030.1
20260507065204 12 315 1.6 3.2 0.00 0.00 0.00 85 1030.0
20260507064700 12 308 1.6 3.2 0.00 0.00 0.00 85 1030.1
20260507064200 12 327 0.0 4.8 0.00 0.00 0.00 85 1030.1
20260507063658 12 327 0.0 4.8 0.00 0.00 0.00 85 1030.1
20260507063200 12 296 0.0 1.6 0.00 0.00 0.00 85 1030.0
20260507062658 12 296 0.0 3.2 0.00 0.00 0.00 85 1030.0
20260507062157 12 296 0.0 4.8 0.00 0.00 0.00 85 1030.1
20260507061652 12 309 0.0 4.8 0.00 0.00 0.00 85 1030.1
20260507061151 12 239 0.0 4.8 0.00 0.00 0.00 85 1030.1
20260507060647 12 236 1.6 6.4 0.00 0.00 0.00 85 1030.1
20260507060145 12 228 1.6 6.4 0.00 0.00 0.00 85 1030.0
20260507055647 12 276 1.6 4.8 0.00 0.00 0.00 85 1030.1
20260507055140 12 247 1.6 6.4 0.00 0.00 0.00 85 1030.1
20260507054640 12 246 3.2 9.7 0.00 0.00 0.00 84 1030.0
20260507054140 12 242 3.2 9.7 0.00 0.00 0.00 84 1030.1
20260507053639 12 269 3.2 9.7 0.00 0.00 0.00 84 1030.1
20260507053139 12 258 3.2 9.7 0.00 0.00 0.00 84 1030.2
20260507052641 12 244 3.2 9.7 0.00 0.00 0.00 84 1030.2
20260507052135 12 280 3.2 12.9 0.00 0.00 0.00 84 1030.2
20260507051635 12 253 3.2 12.9 0.00 0.00 0.00 84 1030.1
20260507051134 12 255 3.2 9.7 0.00 0.00 0.00 84 1030.2
20260507050634 12 279 4.8 12.9 0.00 0.00 0.00 84 1030.1
20260507050134 12 253 4.8 12.9 0.00 0.00 0.00 84 1030.0
20260507045635 12 292 3.2 12.9 0.00 0.00 0.00 84 1030.0
20260507045130 12 283 3.2 11.3 0.00 0.00 0.00 84 1030.0
20260507044629 12 267 3.2 11.3 0.00 0.00 0.00 84 1030.1
20260507044131 12 242 3.2 6.4 0.00 0.00 0.00 83 1030.0
20260507043630 12 277 3.2 9.7 0.00 0.00 0.00 83 1030.1
20260507043128 12 262 1.6 9.7 0.00 0.00 0.00 83 1029.9
20260507042629 13 277 0.0 3.2 0.00 0.00 0.00 83 1030.0
20260507042126 13 277 0.0 4.8 0.00 0.00 0.00 83 1029.9
20260507041623 13 276 1.6 6.4 0.00 0.00 0.00 83 1029.9
20260507041125 13 277 1.6 12.9 0.00 0.00 0.00 83 1029.8
20260507040624 13 277 3.2 12.9 0.00 0.00 0.00 82 1029.7
20260507040122 13 220 3.2 6.4 0.00 0.00 0.00 82 1029.6
20260507035623 13 267 3.2 11.3 0.00 0.00 0.00 82 1029.4
20260507035116 13 317 3.2 11.3 0.00 0.00 0.00 82 1029.4
20260507034615 13 290 4.8 11.3 0.00 0.00 0.00 82 1029.3
20260507034115 13 277 4.8 12.9 0.00 0.00 0.00 82 1029.3
20260507033615 13 249 4.8 12.9 0.00 0.00 0.00 81 1029.2
20260507033115 14 293 4.8 12.9 0.00 0.00 0.00 81 1029.1
20260507032617 14 267 4.8 12.9 0.00 0.00 0.00 81 1029.1
20260507032110 14 265 6.4 12.9 0.00 0.00 0.00 80 1029.0
20260507031610 15 313 6.4 12.9 0.00 0.00 0.00 79 1029.0
20260507031110 15 267 4.8 12.9 0.00 0.00 0.00 79 1028.9
20260507030609 15 25 4.8 12.9 0.00 0.00 0.00 78 1028.9
20260507030109 15 350 4.8 9.7 0.00 0.00 0.00 78 1028.8
20260507025610 16 282 3.2 8.0 0.00 0.00 0.00 77 1028.8
20260507025110 16 302 3.2 11.3 0.00 0.00 0.00 77 1028.7
20260507024610 16 276 3.2 11.3 0.00 0.00 0.00 76 1028.8
20260507024111 16 273 4.8 9.7 0.00 0.00 0.00 76 1028.8
20260507023605 16 279 4.8 12.9 0.00 0.00 0.00 75 1028.7
20260507023106 16 287 6.4 12.9 0.00 0.00 0.00 75 1028.7
20260507022605 17 259 4.8 12.9 0.00 0.00 0.00 74 1028.7
20260507022107 17 323 4.8 14.5 0.00 0.00 0.00 74 1028.7
20260507021606 17 275 4.8 14.5 0.00 0.00 0.00 74 1028.6
20260507021105 17 274 6.4 16.1 0.00 0.00 0.00 73 1028.7
20260507020607 17 271 6.4 17.7 0.00 0.00 0.00 73 1028.8
20260507015602 18 355 6.4 16.1 0.00 0.00 0.00 72 1028.8
20260507015104 18 281 8.0 17.7 0.00 0.00 0.00 72 1028.8
20260507014602 18 301 6.4 17.7 0.00 0.00 0.00 71 1028.9
20260507014101 18 313 4.8 14.5 0.00 0.00 0.00 71 1028.7
20260507013602 18 255 4.8 14.5 0.00 0.00 0.00 71 1028.6
20260507013058 18 256 4.8 12.9 0.00 0.00 0.00 71 1028.7
20260507012559 18 258 4.8 12.9 0.00 0.00 0.00 71 1028.6
20260507012058 19 281 6.4 14.5 0.00 0.00 0.00 70 1028.6
20260507011558 19 242 6.4 14.5 0.00 0.00 0.00 69 1028.6
20260507011057 19 256 6.4 12.9 0.00 0.00 0.00 69 1028.6
20260507010559 19 300 6.4 16.1 0.00 0.00 0.00 70 1028.6
20260507010052 20 288 6.4 16.1 0.00 0.00 0.00 69 1028.7
20260507005553 20 292 6.4 14.5 0.00 0.00 0.00 69 1028.8
20260507005052 20 283 6.4 12.9 0.00 0.00 0.00 69 1028.6
20260507004552 20 280 6.4 16.1 0.00 0.00 0.00 68 1028.7
20260507004045 20 284 6.4 16.1 0.00 0.00 0.00 68 1028.8
20260507003545 20 306 6.4 20.9 0.00 0.00 0.00 68 1028.7
20260507003044 20 302 8.0 20.9 0.00 0.00 0.00 68 1028.6
20260507002544 20 338 8.0 20.9 0.00 0.00 0.00 68 1028.6
20260507002043 20 304 8.0 19.3 0.00 0.00 0.00 68 1028.6
20260507001544 20 316 8.0 19.3 0.00 0.00 0.00 67 1028.6
20260507001038 20 344 8.0 17.7 0.00 0.00 0.00 68 1028.5
20260507000537 21 355 8.0 17.7 0.00 0.00 0.00 68 1028.4
20260507000037 21 323 8.0 17.7 0.00 0.00 0.00 68 1028.4
20260506235537 21 291 8.0 17.7 0.00 0.00 0.00 67 1028.3
20260506235038 21 261 8.0 20.9 0.00 0.00 0.00 67 1028.3
20260506234537 21 5 8.0 16.1 0.00 0.00 0.00 67 1028.4
20260506234032 21 298 8.0 17.7 0.00 0.00 0.00 66 1028.4
20260506233531 21 0 8.0 17.7 0.00 0.00 0.00 67 1028.3
20260506233032 21 290 6.4 16.1 0.00 0.00 0.00 66 1028.2
20260506232531 22 294 6.4 19.3 0.00 0.00 0.00 67 1028.1
20260506232031 22 236 6.4 19.3 0.00 0.00 0.00 67 1028.2
20260506231532 22 261 8.0 14.5 0.00 0.00 0.00 67 1028.3
20260506231026 22 261 8.0 14.5 0.00 0.00 0.00 67 1028.3
20260506230525 22 251 6.4 14.5 0.00 0.00 0.00 67 1028.3
20260506230025 22 282 4.8 14.5 0.00 0.00 0.00 67 1028.3
20260506225525 22 283 4.8 14.5 0.00 0.00 0.00 66 1028.4
20260506225025 22 321 4.8 14.5 0.00 0.00 0.00 65 1028.5
20260506224525 22 265 4.8 12.9 0.00 0.00 0.00 65 1028.5
20260506224019 22 273 4.8 14.5 0.00 0.00 0.00 64 1028.6
20260506223519 23 267 3.2 14.5 0.00 0.00 0.00 62 1028.6
20260506223019 22 175 3.2 6.4 0.00 0.00 0.00 62 1028.6
20260506222519 22 251 3.2 11.3 0.00 0.00 0.00 62 1028.7
20260506222019 22 36 3.2 11.3 0.00 0.00 0.00 65 1028.6
20260506221520 22 299 3.2 9.7 0.00 0.00 0.00 66 1028.7
20260506221016 22 216 4.8 11.3 0.00 0.00 0.00 65 1028.8
20260506220515 22 276 3.2 11.3 0.00 0.00 0.00 66 1028.8
20260506220016 22 221 3.2 9.7 0.00 0.00 0.00 67 1028.8
20260506215515 21 157 3.2 8.0 0.00 0.00 0.00 65 1028.8
20260506215013 21 165 3.2 11.3 0.00 0.00 0.00 67 1028.8
20260506214514 21 261 4.8 11.3 0.00 0.00 0.00 67 1028.9
20260506214011 21 219 4.8 11.3 0.00 0.00 0.00 69 1028.8
20260506213509 21 259 3.2 9.7 0.00 0.00 0.00 69 1028.8
20260506213011 21 237 1.6 8.0 0.00 0.00 0.00 71 1028.7
20260506212509 21 319 3.2 9.7 0.00 0.00 0.00 69 1028.7
20260506212007 21 344 3.2 11.3 0.00 0.00 0.00 69 1028.9
20260506211506 21 210 3.2 11.3 0.00 0.00 0.00 72 1028.8
20260506211005 20 176 3.2 11.3 0.00 0.00 0.00 74 1028.8
20260506210505 20 202 1.6 9.7 0.00 0.00 0.00 76 1028.9
20260506210006 20 323 1.6 8.0 0.00 0.00 0.00 73 1028.9
20260506205504 20 315 3.2 8.0 0.00 0.00 0.00 74 1029.1
20260506205001 20 232 1.6 8.0 0.00 0.00 0.00 74 1029.1
20260506204502 19 83 1.6 6.4 0.00 0.00 0.00 76 1029.1
20260506203957 19 245 3.2 9.7 0.00 0.00 0.00 75 1029.2
20260506203457 19 234 4.8 11.3 0.00 0.00 0.00 74 1029.2
20260506202955 20 244 4.8 11.3 0.00 0.00 0.00 73 1029.3
20260506202456 20 279 3.2 9.7 0.00 0.00 0.00 73 1029.3
20260506201955 20 215 1.6 9.7 0.00 0.00 0.00 71 1029.2
20260506201456 21 152 3.2 9.7 0.00 0.00 0.00 73 1029.2
20260506200950 20 175 4.8 12.9 0.00 0.00 0.00 74 1029.2
20260506200449 20 175 4.8 12.9 0.00 0.00 0.00 73 1029.4
20260506195949 20 190 3.2 12.9 0.00 0.00 0.00 73 1029.4
20260506195449 21 227 4.8 12.9 0.00 0.00 0.00 72 1029.3
20260506194949 21 118 4.8 12.9 0.00 0.00 0.00 73 1029.4
20260506194449 21 211 4.8 19.3 0.00 0.00 0.00 74 1029.5
20260506193945 20 186 4.8 19.3 0.00 0.00 0.00 75 1029.4
20260506193445 20 148 4.8 16.1 0.00 0.00 0.00 78 1029.4
20260506192945 19 117 4.8 16.1 0.00 0.00 0.00 76 1029.4
20260506192445 19 171 4.8 14.5 0.00 0.00 0.00 77 1029.4
20260506191942 19 161 4.8 12.9 0.00 0.00 0.00 78 1029.3
20260506191444 18 156 4.8 11.3 0.00 0.00 0.00 82 1029.4
20260506190938 18 145 4.8 11.3 0.00 0.00 0.00 82 1029.6
20260506190437 17 156 3.2 9.7 0.00 0.00 0.00 82 1029.7
20260506185936 17 218 4.8 11.3 0.00 0.00 0.00 81 1029.7
20260506185437 17 235 3.2 11.3 0.00 0.00 0.00 81 1029.7
20260506184937 17 150 3.2 8.0 0.00 0.00 0.00 82 1029.7
20260506184438 16 197 3.2 8.0 0.00 0.00 0.00 82 1029.7
20260506183932 16 207 3.2 9.7 0.00 0.00 0.00 83 1029.7
20260506183431 16 180 3.2 11.3 0.00 0.00 0.00 84 1029.7
20260506182930 16 240 3.2 11.3 0.00 0.00 0.00 84 1029.8
20260506182431 16 273 1.6 9.7 0.00 0.00 0.00 84 1029.7
20260506181931 16 225 1.6 4.8 0.00 0.00 0.00 83 1029.8
20260506181431 16 202 1.6 8.0 0.00 0.00 0.00 83 1029.8
20260506180926 16 178 3.2 9.7 0.00 0.00 0.00 83 1029.6
20260506180425 15 106 1.6 9.7 0.00 0.00 0.00 85 1029.7
20260506175925 15 82 1.6 4.8 0.00 0.00 0.00 85 1029.6
20260506175425 15 168 1.6 8.0 0.00 0.00 0.00 86 1029.7
20260506174925 14 154 1.6 8.0 0.00 0.00 0.00 87 1029.7
20260506174426 14 215 1.6 4.8 0.00 0.00 0.00 86 1029.7
20260506173919 14 253 1.6 4.8 0.00 0.00 0.00 87 1029.7
20260506173418 14 302 1.6 4.8 0.00 0.00 0.00 88 1029.8
20260506172915 13 333 1.6 6.4 0.00 0.00 0.00 87 1029.8
20260506172413 13 258 3.2 8.0 0.00 0.00 0.00 87 1029.9
20260506171914 13 270 3.2 11.3 0.00 0.00 0.00 87 1029.9
20260506171408 13 259 1.6 11.3 0.00 0.00 0.00 87 1029.8
20260506170908 13 248 1.6 4.8 0.00 0.00 0.00 88 1029.4
20260506170408 13 257 1.6 6.4 0.00 0.00 0.00 87 1029.5
20260506165909 13 217 3.2 6.4 0.00 0.00 0.00 87 1029.6
20260506165408 13 264 3.2 6.4 0.00 0.00 0.00 87 1029.8
20260506164910 13 273 1.6 6.4 0.00 0.00 0.00 87 1029.7
20260506164407 13 271 1.6 6.4 0.00 0.00 0.00 88 1029.9
20260506163906 13 207 1.6 4.8 0.00 0.00 0.00 88 1029.7
20260506163409 13 225 1.6 6.4 0.00 0.00 0.00 88 1029.7
20260506162907 13 221 1.6 6.4 0.00 0.00 0.00 88 1029.5
20260506162407 13 225 1.6 6.4 0.00 0.00 0.00 88 1029.6
20260506161908 13 227 1.6 6.4 0.00 0.00 0.00 88 1029.5
20260506161404 13 163 1.6 6.4 0.00 0.00 0.00 88 1029.3
20260506160902 13 233 3.2 8.0 0.00 0.00 0.00 88 1029.3
20260506160403 13 180 1.6 8.0 0.00 0.00 0.00 89 1029.1
20260506155902 12 169 1.6 8.0 0.00 0.00 0.00 89 1029.2
20260506155402 12 121 1.6 8.0 0.00 0.00 0.00 89 1029.2
20260506154904 12 239 1.6 4.8 0.00 0.00 0.00 89 1029.5
20260506154359 12 236 1.6 4.8 0.00 0.00 0.00 89 1029.4
20260506153858 12 224 1.6 4.8 0.00 0.00 0.00 89 1029.5
20260506153400 12 273 1.6 4.8 0.00 0.00 0.00 89 1029.5
20260506152858 12 182 1.6 6.4 0.00 0.00 0.00 89 1029.6
20260506152358 12 244 1.6 6.4 0.00 0.00 0.00 89 1029.7
20260506151859 12 234 1.6 9.7 0.00 0.00 0.00 89 1029.6
20260506151354 12 231 3.2 11.3 0.00 0.00 0.00 89 1029.8
20260506150854 12 209 4.8 11.3 0.00 0.00 0.00 89 1029.7
20260506150354 12 229 4.8 16.1 0.00 0.00 0.00 89 1029.8
20260506145855 12 288 4.8 16.1 0.00 0.00 0.00 88 1029.7
20260506145355 12 246 6.4 14.5 0.00 0.00 0.00 88 1029.7
20260506144854 12 275 4.8 14.5 0.00 0.00 0.00 88 1029.7
20260506144354 12 237 3.2 8.0 0.00 0.00 0.00 89 1029.4
20260506143854 12 232 3.2 8.0 0.00 0.00 0.00 89 1029.2
20260506143355 12 246 3.2 8.0 0.00 0.00 0.00 89 1029.2
20260506142854 12 226 3.2 8.0 0.00 0.00 0.00 89 1029.0
20260506142354 12 252 1.6 6.4 0.00 0.00 0.00 90 1028.9
20260506141855 11 202 1.6 6.4 0.00 0.00 0.00 90 1028.8
20260506141348 11 200 1.6 6.4 0.00 0.00 0.00 90 1028.6
20260506140847 11 175 0.0 1.6 0.00 0.00 0.00 90 1028.7
20260506140345 11 176 0.0 3.2 0.00 0.00 0.00 90 1028.7
20260506135843 11 180 1.6 4.8 0.00 0.00 0.00 90 1028.7
20260506135342 11 147 0.0 4.8 0.00 0.00 0.00 90 1028.8
20260506134839 11 172 0.0 3.2 0.00 0.00 0.00 90 1028.7
20260506134338 11 175 0.0 1.6 0.00 0.00 0.00 90 1028.8
20260506133836 11 181 0.0 4.8 0.00 0.00 0.00 90 1028.8
20260506133337 11 182 1.6 6.4 0.00 0.00 0.00 90 1028.9
20260506132836 11 220 0.0 6.4 0.00 0.00 0.00 90 1028.7
20260506132337 12 222 0.0 3.2 0.00 0.00 0.00 89 1028.6
20260506131830 12 223 0.0 3.2 0.00 0.00 0.00 89 1028.5
20260506131330 12 229 0.0 3.2 0.00 0.00 0.00 89 1028.5
20260506130830 12 229 0.0 3.2 0.00 0.00 0.00 89 1028.4
20260506130330 12 231 0.0 1.6 0.00 0.00 0.00 90 1028.4
20260506125830 12 231 0.0 3.2 0.00 0.00 0.00 90 1028.2
20260506125331 12 230 0.0 3.2 0.00 0.00 0.00 90 1028.1
20260506124825 12 243 0.0 3.2 0.00 0.00 0.00 90 1028.2
20260506124324 12 243 0.0 3.2 0.00 0.00 0.00 90 1028.2
20260506123824 12 244 0.0 1.6 0.00 0.00 0.00 90 1028.2
20260506123326 12 243 0.0 1.6 0.00 0.00 0.00 90 1028.3
20260506122824 12 242 0.0 1.6 0.00 0.00 0.00 90 1028.2
20260506122325 12 243 0.0 1.6 0.00 0.00 0.00 90 1028.2
20260506121820 12 248 0.0 0.0 0.00 0.00 0.00 90 1028.2
20260506121320 12 248 0.0 1.6 0.00 0.00 0.00 90 1028.2
20260506120820 11 248 0.0 1.6 0.00 0.00 0.00 91 1028.1
20260506120321 11 248 0.0 1.6 0.00 0.00 0.00 91 1028.2
20260506115818 11 285 0.0 0.0 0.00 0.00 0.00 90 1028.2
20260506115318 11 284 0.0 0.0 0.00 0.00 0.00 90 1028.1
20260506114816 11 286 0.0 0.0 0.00 0.00 0.00 90 1028.1
20260506114314 11 285 0.0 0.0 0.00 0.00 0.00 90 1027.9
20260506113812 11 284 0.0 0.0 0.00 0.00 0.00 90 1027.9
20260506113312 11 286 0.0 0.0 0.00 0.00 0.00 90 1027.8
20260506112812 11 285 0.0 0.0 0.00 0.00 0.00 90 1027.7
20260506112313 11 284 0.0 0.0 0.00 0.00 0.00 90 1027.6
20260506111808 11 285 0.0 0.0 0.00 0.00 0.00 91 1027.6
20260506111308 11 285 0.0 0.0 0.00 0.00 0.00 90 1027.6
20260506110806 11 284 0.0 1.6 0.00 0.00 0.00 91 1027.6
20260506110306 11 284 0.0 1.6 0.00 0.00 0.00 91 1027.5
20260506105806 11 285 0.0 3.2 0.00 0.00 0.00 91 1027.4
20260506105306 11 284 0.0 3.2 0.00 0.00 0.00 91 1027.3
20260506104805 11 285 0.0 3.2 0.00 0.00 0.00 91 1027.2
20260506104304 11 284 1.6 4.8 0.00 0.00 0.00 91 1027.2
20260506103803 11 284 1.6 4.8 0.00 0.00 0.00 91 1027.1
20260506103302 11 311 0.0 3.2 0.00 0.00 0.00 91 1027.1
20260506102800 11 294 0.0 3.2 0.00 0.00 0.00 91 1027.1
20260506102300 11 298 0.0 3.2 0.00 0.00 0.00 91 1027.1
20260506101759 11 233 0.0 3.2 0.00 0.00 0.00 91 1026.9
20260506101254 11 232 0.0 1.6 0.00 0.00 0.00 90 1026.8
20260506100754 11 232 0.0 1.6 0.00 0.00 0.00 90 1026.9
20260506100254 11 231 0.0 1.6 0.00 0.00 0.00 90 1026.8
20260506095754 11 231 0.0 1.6 0.00 0.00 0.00 90 1026.7
20260506095254 11 230 0.0 0.0 0.00 0.00 0.00 90 1026.7
20260506094751 11 231 0.0 0.0 0.00 0.00 0.00 90 1026.6
20260506094250 11 230 0.0 1.6 0.00 0.00 0.00 90 1026.6
20260506093748 11 231 0.0 1.6 0.00 0.00 0.00 90 1026.6
20260506093248 11 230 0.0 1.6 0.00 0.00 0.00 90 1026.6
20260506092748 11 231 0.0 1.6 0.00 0.00 0.00 89 1026.6
20260506092247 12 230 0.0 1.6 0.00 0.00 0.00 89 1026.6
20260506091742 12 230 0.0 1.6 0.00 0.00 0.00 89 1026.4
20260506091241 12 230 0.0 1.6 0.00 0.00 0.00 89 1026.4
20260506090738 12 265 0.0 1.6 0.00 0.00 0.00 88 1026.4
20260506090235 12 265 0.0 0.0 0.00 0.00 0.00 88 1026.3
20260506085737 12 265 0.0 1.6 0.00 0.00 0.00 88 1026.3